Showing default

KINEIS-2A, 62932

Orbit data source: Space-Track

KINEIS-2A, 62932 is a French payload satellite in SSO that was launched on Sat, 08 Feb 2025 UTC via an ELECTRON launch vehicle from the Rocket Lab Launch Complex (RLLC). Payload-class satellites include a variety of spacecraft equipped with specific instruments for various scientific and technological missions. These include communications satellites like Starlink; space stations such as the ISS; scientific satellites like the Hubble; Earth observation satellites from companies like Planet Labs, Umbra, and HawkEye 360; GPS; miniature CubeSats for education and research; and military/defense satellites.

Loading next visibility...
Identifier
62932, 2025-028E
Orbit
SSO
Country
Flag of FRFR
Related business
Manufacturer
KINEIS
Mission
Operational Commercial Communications
Bus & Motor
CUBESAT 16U, Unknown motor
Mass
28 kg wet, 28 kg dry
Launch date (UTC)
2025-02-08 (7 months ago)
Launch vehicle
ELECTRON
Launch site
Rocket Lab Launch Complex (RLLC)
Object type
Payload
Rocket body
Debris
Shape & HBR
Box + 2 Pan + 1 Ant, 0.8 m
Radar Cross Section
0.229 m², Medium (>0.1 m² and < 1m²)

Expand to show TLE details & history
Last TLE update: 19 hours ago

TLE from 19 hours ago
0 KINEIS-2A
1 62932U 25028E   25257.72450599  .00000957  00000-0  15939-3 0  9992
2 62932  98.0214 310.4113 0001784 346.4794  13.6366 14.72263362 32071
Epoch: 2025-09-14T17:23Z
TLE epoch observation values (Epoch: 2025-09-14T17:23:17.317Z)
Latitude
0.00005°
Longitude
55.64974°
Altitude
655.64 km
Speed
7.53 km/s
True Right ascension
20h 41m 38s
True Declination
0° 00' 00"
Sunlit
Object was in full shadow at epoch
Visualization orbit readout
Latitude
Unknown
Longitude
Unknown
Altitude
Unknown
Speed
Unknown
Apparent Right ascension
Unknown
Apparent Declination
Unknown
Sunlit
N/A
Visualization observer readout
Local Sidereal Time
04:51:55
Azimuth
Unknown
Elevation
Unknown
Doppler factor
Unknown
Orbital elements
Apogee altitude
652.162 km
Perigee altitude
649.654 km
Semi-major axis
7,029.045 km
Eccentricity
0.00018
Inclination
98.0214°
RAAN
310.4113°
Arg. of periapsis
346.4794°
True anomaly
13.64142°
Mean anomaly
13.6366°
Eccentric anomaly
13.63901°
Mean motion
3.68297 °/min
Orbital period
97.75 mins
BSTAR
0.00015939
Loading maneuver chart data...
Computing Atmospheric mass density...
Loading historical data...
Loading historical data...
Loading historical data...
Loading historical data...
Loading historical data...
Loading historical data...
Loading historical data...

Documentation

Showing up to 5 results
|